DL6DJ-15 Weather Reports


time (UTC)temp
F
wind
direction
speed
knots
gust
knots
rain 1hr
in
rain 24hr
in
rain mn
in
humidity
%
barometer
mb
20260504130416 83 0.0 0.0 0.00 0.00 0.00 21 1013.7
20260504110401 83 0.0 0.0 0.00 0.00 0.00 21 1014.9
20260504100357 88 0.0 0.0 0.00 0.00 0.00 17 1015.7
20260504081847 85 0.0 0.0 0.00 0.00 0.00 19 1016.2
20260504081346 86 0.0 0.0 0.00 0.00 0.00 19 1016.3
20260504080846 87 0.0 0.0 0.00 0.00 0.00 18 1016.3
20260504080346 87 0.0 0.0 0.00 0.00 0.00 18 1016.4
20260504070341 67 0.0 0.0 0.00 0.00 0.00 40 1016.3
20260504050332 59 0.0 0.0 0.00 0.00 0.00 55 1015.9
20260504045832 59 0.0 0.0 0.00 0.00 0.00 56 1015.9
20260504045331 58 0.0 0.0 0.00 0.00 0.00 57 1015.9
20260504044831 58 0.0 0.0 0.00 0.00 0.00 59 1015.8
20260504044331 57 0.0 0.0 0.00 0.00 0.00 58 1015.8
20260504043830 57 0.0 0.0 0.00 0.00 0.00 59 1015.7
20260504043330 57 0.0 0.0 0.00 0.00 0.00 59 1015.7
20260504042829 57 0.0 0.0 0.00 0.00 0.00 59 1015.8
20260504042329 57 0.0 0.0 0.00 0.00 0.00 58 1015.8
20260504041829 57 0.0 0.0 0.00 0.00 0.00 57 1015.8
20260504041329 57 0.0 0.0 0.00 0.00 0.00 56 1015.8
20260504040828 57 0.0 0.0 0.00 0.00 0.00 56 1015.7
20260504040328 58 0.0 0.0 0.00 0.00 0.00 55 1015.8
20260504035827 58 0.0 0.0 0.00 0.00 0.00 54 1015.8
20260504035327 59 0.0 0.0 0.00 0.00 0.00 53 1015.8
20260504034827 59 0.0 0.0 0.00 0.00 0.00 51 1015.9
20260504034326 59 0.0 0.0 0.00 0.00 0.00 49 1015.7
20260504033826 59 0.0 0.0 0.00 0.00 0.00 50 1015.8
20260504033325 60 0.0 0.0 0.00 0.00 0.00 48 1015.8
20260504032825 60 0.0 0.0 0.00 0.00 0.00 47 1015.8
20260504032324 60 0.0 0.0 0.00 0.00 0.00 46 1015.7
20260504031824 60 0.0 0.0 0.00 0.00 0.00 45 1015.7
20260504031324 60 0.0 0.0 0.00 0.00 0.00 44 1015.7
20260504030823 60 0.0 0.0 0.00 0.00 0.00 45 1015.7
20260504030323 60 0.0 0.0 0.00 0.00 0.00 44 1015.7
20260504025822 60 0.0 0.0 0.00 0.00 0.00 44 1015.7
20260504025322 60 0.0 0.0 0.00 0.00 0.00 44 1015.6
20260504024821 60 0.0 0.0 0.00 0.00 0.00 45 1015.5
20260504024321 60 0.0 0.0 0.00 0.00 0.00 45 1015.5
20260504023821 60 0.0 0.0 0.00 0.00 0.00 45 1015.7
20260504023320 60 0.0 0.0 0.00 0.00 0.00 46 1015.9
20260504022820 60 0.0 0.0 0.00 0.00 0.00 46 1015.9
20260504022319 60 0.0 0.0 0.00 0.00 0.00 45 1015.8
20260504021819 60 0.0 0.0 0.00 0.00 0.00 45 1015.9
20260504021318 60 0.0 0.0 0.00 0.00 0.00 45 1015.8
20260504020818 60 0.0 0.0 0.00 0.00 0.00 46 1015.7
20260504020318 60 0.0 0.0 0.00 0.00 0.00 46 1015.8
20260504015818 60 0.0 0.0 0.00 0.00 0.00 46 1015.9
20260504015317 60 0.0 0.0 0.00 0.00 0.00 45 1015.8
20260504014817 60 0.0 0.0 0.00 0.00 0.00 45 1015.8
20260504014316 60 0.0 0.0 0.00 0.00 0.00 45 1015.9
20260504013816 60 0.0 0.0 0.00 0.00 0.00 45 1015.9
20260504013316 60 0.0 0.0 0.00 0.00 0.00 44 1015.9
20260504012815 60 0.0 0.0 0.00 0.00 0.00 44 1015.9
20260504012315 61 0.0 0.0 0.00 0.00 0.00 44 1015.7
20260504011814 61 0.0 0.0 0.00 0.00 0.00 43 1015.6
20260504011314 61 0.0 0.0 0.00 0.00 0.00 44 1015.5
20260504010814 61 0.0 0.0 0.00 0.00 0.00 44 1015.7
20260504010313 61 0.0 0.0 0.00 0.00 0.00 44 1015.5
20260504005813 61 0.0 0.0 0.00 0.00 0.00 44 1015.4
20260504005313 61 0.0 0.0 0.00 0.00 0.00 44 1015.3
20260504004812 61 0.0 0.0 0.00 0.00 0.00 45 1015.2
20260504004311 61 0.0 0.0 0.00 0.00 0.00 45 1015.2
20260504003811 61 0.0 0.0 0.00 0.00 0.00 44 1015.2
20260504003311 62 0.0 0.0 0.00 0.00 0.00 44 1015.1
20260504002811 62 0.0 0.0 0.00 0.00 0.00 44 1015.1
20260504002310 62 0.0 0.0 0.00 0.00 0.00 43 1014.9
20260504001810 62 0.0 0.0 0.00 0.00 0.00 43 1014.7
20260504001309 62 0.0 0.0 0.00 0.00 0.00 43 1014.7
20260504000809 62 0.0 0.0 0.00 0.00 0.00 43 1014.8
20260504000308 62 0.0 0.0 0.00 0.00 0.00 44 1014.9
20260503235808 62 0.0 0.0 0.00 0.00 0.00 44 1015.0
20260503235307 62 0.0 0.0 0.00 0.00 0.00 43 1014.9
20260503234807 63 0.0 0.0 0.00 0.00 0.00 44 1014.9
20260503234307 63 0.0 0.0 0.00 0.00 0.00 44 1014.8
20260503233806 63 0.0 0.0 0.00 0.00 0.00 44 1014.8
20260503233306 62 0.0 0.0 0.00 0.00 0.00 44 1014.9
20260503232805 62 0.0 0.0 0.00 0.00 0.00 44 1015.0
20260503232306 63 0.0 0.0 0.00 0.00 0.00 45 1015.0
20260503231805 63 0.0 0.0 0.00 0.00 0.00 46 1014.9
20260503231304 63 0.0 0.0 0.00 0.00 0.00 46 1015.0
20260503230804 63 0.0 0.0 0.00 0.00 0.00 46 1014.8
20260503230304 63 0.0 0.0 0.00 0.00 0.00 46 1014.8
20260503225803 63 0.0 0.0 0.00 0.00 0.00 44 1014.6
20260503225304 63 0.0 0.0 0.00 0.00 0.00 46 1014.7
20260503224803 63 0.0 0.0 0.00 0.00 0.00 45 1014.7
20260503224302 63 0.0 0.0 0.00 0.00 0.00 46 1014.6
20260503223802 63 0.0 0.0 0.00 0.00 0.00 45 1014.5
20260503223302 63 0.0 0.0 0.00 0.00 0.00 44 1014.4
20260503222801 64 0.0 0.0 0.00 0.00 0.00 45 1014.5
20260503222301 64 0.0 0.0 0.00 0.00 0.00 45 1014.4
20260503221800 64 0.0 0.0 0.00 0.00 0.00 45 1014.3
20260503221300 64 0.0 0.0 0.00 0.00 0.00 46 1014.4
20260503220759 63 0.0 0.0 0.00 0.00 0.00 46 1014.3
20260503220258 63 0.0 0.0 0.00 0.00 0.00 47 1014.3
20260503215758 64 0.0 0.0 0.00 0.00 0.00 46 1014.3
20260503215258 64 0.0 0.0 0.00 0.00 0.00 46 1014.4
20260503214757 64 0.0 0.0 0.00 0.00 0.00 45 1014.4
20260503214257 64 0.0 0.0 0.00 0.00 0.00 45 1014.4
20260503213756 63 0.0 0.0 0.00 0.00 0.00 45 1014.3
20260503213256 63 0.0 0.0 0.00 0.00 0.00 45 1014.2
20260503212756 63 0.0 0.0 0.00 0.00 0.00 47 1014.1
20260503212255 63 0.0 0.0 0.00 0.00 0.00 46 1014.0
20260503211755 64 0.0 0.0 0.00 0.00 0.00 45 1014.0
20260503211255 65 0.0 0.0 0.00 0.00 0.00 45 1013.9
20260503210754 65 0.0 0.0 0.00 0.00 0.00 44 1014.0
20260503210253 65 0.0 0.0 0.00 0.00 0.00 41 1013.9
20260503205753 65 0.0 0.0 0.00 0.00 0.00 42 1013.8
20260503205253 65 0.0 0.0 0.00 0.00 0.00 42 1013.7
20260503204753 65 0.0 0.0 0.00 0.00 0.00 42 1013.7
20260503204252 65 0.0 0.0 0.00 0.00 0.00 43 1013.7
20260503203752 65 0.0 0.0 0.00 0.00 0.00 43 1013.7
20260503203251 65 0.0 0.0 0.00 0.00 0.00 44 1013.6
20260503202751 64 0.0 0.0 0.00 0.00 0.00 45 1013.6
20260503202251 64 0.0 0.0 0.00 0.00 0.00 47 1013.7
20260503201750 64 0.0 0.0 0.00 0.00 0.00 46 1013.6
20260503201250 64 0.0 0.0 0.00 0.00 0.00 48 1013.7
20260503200749 64 0.0 0.0 0.00 0.00 0.00 46 1013.6
20260503200249 64 0.0 0.0 0.00 0.00 0.00 47 1013.5
20260503195749 64 0.0 0.0 0.00 0.00 0.00 47 1013.5
20260503195248 64 0.0 0.0 0.00 0.00 0.00 46 1013.4
20260503194748 64 0.0 0.0 0.00 0.00 0.00 46 1013.4
20260503194247 64 0.0 0.0 0.00 0.00 0.00 45 1013.3
20260503193747 64 0.0 0.0 0.00 0.00 0.00 46 1013.3
20260503193247 64 0.0 0.0 0.00 0.00 0.00 44 1013.3
20260503192746 64 0.0 0.0 0.00 0.00 0.00 47 1013.3
20260503192246 64 0.0 0.0 0.00 0.00 0.00 46 1013.3
20260503191745 64 0.0 0.0 0.00 0.00 0.00 46 1013.2
20260503191245 63 0.0 0.0 0.00 0.00 0.00 47 1013.1
20260503190745 64 0.0 0.0 0.00 0.00 0.00 47 1013.1
20260503190244 64 0.0 0.0 0.00 0.00 0.00 45 1013.2
20260503185744 65 0.0 0.0 0.00 0.00 0.00 44 1013.2
20260503185244 66 0.0 0.0 0.00 0.00 0.00 44 1013.1
20260503184743 66 0.0 0.0 0.00 0.00 0.00 44 1013.0
20260503184243 66 0.0 0.0 0.00 0.00 0.00 44 1012.9
20260503183743 66 0.0 0.0 0.00 0.00 0.00 44 1012.9
20260503183242 66 0.0 0.0 0.00 0.00 0.00 46 1012.9
20260503182742 66 0.0 0.0 0.00 0.00 0.00 45 1012.8
20260503182242 67 0.0 0.0 0.00 0.00 0.00 44 1012.8
20260503181741 67 0.0 0.0 0.00 0.00 0.00 44 1012.7
20260503181241 68 0.0 0.0 0.00 0.00 0.00 44 1012.6
20260503180741 69 0.0 0.0 0.00 0.00 0.00 43 1012.6
20260503180240 70 0.0 0.0 0.00 0.00 0.00 44 1012.6
20260503175739 71 0.0 0.0 0.00 0.00 0.00 44 1012.6
20260503175239 71 0.0 0.0 0.00 0.00 0.00 43 1012.6
20260503174739 72 0.0 0.0 0.00 0.00 0.00 42 1012.6
20260503174239 73 0.0 0.0 0.00 0.00 0.00 41 1012.6
20260503173738 74 0.0 0.0 0.00 0.00 0.00 40 1012.6
20260503173238 74 0.0 0.0 0.00 0.00 0.00 38 1012.6
20260503172738 75 0.0 0.0 0.00 0.00 0.00 37 1012.6
20260503172238 75 0.0 0.0 0.00 0.00 0.00 39 1012.7
20260503171737 76 0.0 0.0 0.00 0.00 0.00 41 1012.6
20260503171236 77 0.0 0.0 0.00 0.00 0.00 39 1012.6
20260503170736 77 0.0 0.0 0.00 0.00 0.00 37 1012.6
20260503170236 78 0.0 0.0 0.00 0.00 0.00 37 1012.6
20260503150727 80 0.0 0.0 0.00 0.00 0.00 22 1012.9
20260503150226 80 0.0 0.0 0.00 0.00 0.00 21 1012.9
20260503140222 81 0.0 0.0 0.00 0.00 0.00 19 1013.5